Temp
-2 -2 -2 -2 -2 -2 -2 -2 -2 -3 -3 -3 -4 -4 -4 -4 -4 -4 -4 -4 -3 -4 -4 -5 -5 -5 -4 -4 -4 -5 -4 -3 -4 -4 -4 -4 -4 -5 -5 -5 -5 -5 -5 -5 -5
-2 -2 -2 -2 -3 -3 -2 -2 -2 -2 -2 -3 -4 -4 -4 -4 -4 -4 -4 -4 -4 -3 -4 -5 -6 -5 -4 -5 -4 -5 -5 -5 -4 -5 -4 -4 -5 -5 -5 -5 -6 -5 -5 -5 -5
-2 -2 -2 -2 -2 -2 -2 -3 -3 -2 -2 -3 -2 -3 -4 -4 -4 -5 -4 -4 -4 -4 -4 -5 -6 -5 -5 -5 -4 -5 -3 -5 -6 -5 -4 -4 -4 -4 -5 -4 -5 -5 -5 -5 -5
-2 -2 -3 -3 -3 -3 -3 -3 -3 -3 -3 -3 -3 -3 -3 -4 -4 -4 -5 -4 -4 -4 -4 -5 -6 -6 -5 -5 -5 -5 -6 -5 -4 -4 -3 -4 -4 -5 -5 -4 -4 -4 -5 -5 -5
-2 -2 -2 -3 -2 -3 -3 -3 -3 -3 -3 -3 -3 -4 -4 -4 -4 -5 -5 -5 -5 -5 -5 -6 -6 -6 -5 -5 -5 -6 -5 -5 -5 -5 -4 -4 -4 -6 -4 -4 -5 -4 -5 -5 -5
-3 -2 -3 -2 -2 -3 -3 -3 -3 -4 -4 -4 -4 -4 -4 -4 -4 -5 -5 -5 -5 -5 -5 -6 -6 -6 -5 -5 -5 -5 -6 -5 -5 -5 -6 -4 -4 -4 -5 -4 -4 -5 -4 -5 -5
-3 -3 -3 -3 -3 -3 -3 -4 -4 -4 -4 -5 -5 -5 -5 -4 -5 -6 -6 -5 -6 -6 -6 -7 -6 -6 -6 -6 -5 -5 -5 -5 -5 -5 -5 -5 -4 -4 -4 -5 -4 -5 -4 -5 -5
-3 -3 -3 -3 -3 -3 -4 -5 -5 -6 -6 -7 -7 -7 -7 -6 -7 -7 -7 -6 -6 -6 -7 -7 -7 -6 -6 -6 -5 -5 -5 -5 -5 -5 -5 -6 -4 -4 -4 -5 -4 -4 -5 -4 -5
-3 -4 -4 -4 -4 -5 -6 -6 -7 -8 -9 -9 -9 -9 -8 -8 -8 -8 -8 -7 -7 -7 -7 -7 -7 -7 -6 -6 -5 -5 -5 -6 -6 -5 -5 -5 -4 -5 -4 -5 -5 -4 -5 -5 -4
-4 -4 -4 -5 -5 -6 -8 -9 -9 -10 -10 -10 -10 -10 -9 -9 -9 -9 -8 -8 -8 -7 -7 -8 -7 -7 -7 -6 -6 -7 -6 -5 -5 -5 -5 -6 -5 -5 -5 -5 -5 -5 -5 -5 -5
-4 -5 -5 -5 -7 -8 -9 -10 -10 -11 -11 -11 -11 -11 -10 -9 -9 -9 -9 -8 -8 -8 -8 -8 -7 -7 -7 -7 -7 -7 -6 -5 -5 -5 -5 -5 -5 -6 -5 -5 -5 -5 -5 -5 -5
-5 -5 -5 -7 -8 -9 -10 -10 -11 -11 -11 -12 -12 -11 -11 -10 -10 -9 -9 -9 -9 -8 -9 -8 -8 -7 -8 -7 -6 -7 -6 -6 -6 -6 -6 -5 -6 -5 -5 -5 -5 -5 -5 -5 -5
-5 -6 -7 -9 -9 -10 -10 -11 -12 -12 -12 -12 -12 -12 -11 -11 -10 -10 -9 -9 -9 -9 -9 -9 -8 -8 -8 -8 -6 -6 -7 -7 -6 -6 -6 -6 -6 -5 -5 -6 -5 -5 -4 -5 -5
-6 -7 -9 -9 -9 -10 -11 -12 -12 -13 -13 -13 -13 -12 -12 -12 -11 -10 -10 -10 -9 -9 -9 -9 -9 -10 -9 -9 -9 -7 -6 -7 -7 -7 -6 -6 -6 -6 -6 -6 -6 -5 -5 -5 -4
-7 -8 -9 -9 -10 -10 -11 -12 -13 -13 -13 -14 -13 -13 -13 -12 -13 -11 -10 -9 -10 -10 -10 -10 -9 -11 -10 -9 -9 -8 -7 -7 -6 -7 -7 -6 -6 -6 -6 -6 -6 -4 -4 -5 -5
-8 -9 -9 -9 -10 -11 -12 -12 -13 -13 -13 -14 -13 -13 -13 -13 -14 -12 -11 -10 -10 -10 -10 -10 -11 -11 -9 -10 -10 -9 -9 -8 -7 -7 -7 -8 -7 -7 -6 -7 -6 -5 -5 -5 -5
-9 -9 -9 -10 -10 -11 -11 -12 -13 -13 -13 -14 -14 -14 -14 -14 -14 -12 -11 -11 -10 -10 -10 -10 -11 -12 -10 -10 -10 -9 -9 -9 -8 -8 -8 -8 -8 -7 -7 -7 -6 -6 -6 -7 -5
-9 -9 -10 -10 -11 -11 -12 -13 -13 -14 -14 -13 -14 -14 -14 -14 -14 -13 -12 -12 -11 -11 -12 -11 -11 -9 -9 -9 -11 -10 -10 -9 -8 -8 -7 -6 -8 -8 -7 -7 -6 -8 -7 -6 -5
-9 -10 -10 -11 -11 -11 -12 -13 -14 -15 -14 -15 -14 -14 -14 -14 -14 -14 -14 -13 -13 -12 -12 -12 -12 -12 -11 -10 -11 -10 -10 -9 -8 -8 -7 -8 -7 -6 -7 -7 -6 -6 -7 -5 -6
-10 -10 -10 -11 -11 -11 -12 -14 -14 -14 -14 -15 -14 -14 -14 -14 -14 -14 -14 -13 -13 -13 -13 -12 -11 -12 -12 -10 -10 -10 -10 -10 -10 -9 -8 -7 -7 -7 -8 -7 -6 -5 -5 -5 -5
-10 -10 -11 -11 -12 -12 -12 -14 -13 -14 -13 -15 -14 -14 -14 -14 -14 -14 -13 -13 -13 -12 -12 -12 -11 -12 -12 -11 -10 -10 -9 -10 -10 -9 -9 -7 -8 -7 -8 -8 -8 -6 -5 -5 -5
-10 -11 -12 -12 -12 -15 -14 -13 -14 -14 -14 -14 -14 -14 -15 -14 -14 -14 -14 -13 -13 -13 -13 -12 -11 -11 -12 -12 -11 -11 -11 -11 -10 -9 -9 -9 -10 -8 -8 -8 -9 -9 -6 -4 -5
-11 -11 -12 -12 -12 -14 -13 -13 -13 -15 -14 -15 -15 -14 -14 -14 -14 -14 -14 -13 -13 -13 -13 -12 -12 -13 -12 -11 -12 -11 -12 -11 -11 -10 -10 -9 -9 -9 -9 -9 -6 -7 -7 -6 -5
-11 -12 -13 -13 -12 -14 -14 -15 -14 -13 -13 -14 -14 -14 -14 -15 -15 -14 -14 -15 -13 -13 -13 -12 -12 -13 -12 -11 -11 -12 -12 -12 -11 -11 -10 -9 -9 -9 -9 -9 -8 -7 -6 -7 -6
-11 -12 -13 -14 -13 -13 -13 -13 -14 -15 -13 -14 -14 -14 -14 -14 -15 -15 -15 -15 -14 -14 -13 -13 -13 -13 -11 -12 -11 -12 -11 -12 -12 -11 -10 -10 -10 -10 -8 -7 -7 -8 -6 -6 -6
-12 -11 -13 -13 -13 -13 -14 -13 -13 -13 -13 -13 -14 -14 -14 -14 -15 -14 -15 -15 -15 -14 -14 -14 -14 -13 -12 -12 -12 -12 -12 -11 -12 -12 -10 -11 -11 -9 -9 -6 -7 -6 -6 -5 -6
-12 -12 -13 -13 -14 -14 -15 -14 -14 -13 -13 -13 -13 -14 -14 -14 -14 -14 -14 -14 -16 -14 -14 -14 -14 -14 -13 -13 -13 -12 -12 -12 -12 -12 -12 -11 -12 -10 -9 -7 -7 -9 -9 -8 -7
Height
5875 5873 5871 5869 5867 5866 5864 5863 5862 5861 5862 5862 5863 5864 5866 5868 5869 5871 5873 5874 5875 5876 5878 5881 5885 5886 5887 5888 5886 5886 5887 5883 5891 5893 5894 5896 5897 5897 5900 5901 5902 5902 5903 5903 5904
5872 5870 5867 5866 5865 5864 5863 5861 5860 5859 5859 5859 5860 5861 5863 5865 5867 5868 5870 5872 5873 5875 5876 5879 5883 5886 5887 5887 5887 5886 5883 5885 5889 5891 5894 5895 5897 5900 5901 5902 5905 5904 5905 5906 5907
5869 5867 5865 5863 5862 5860 5859 5858 5857 5857 5856 5856 5856 5857 5859 5861 5863 5867 5867 5869 5871 5873 5875 5877 5881 5884 5885 5886 5886 5888 5874 5875 5890 5890 5894 5896 5899 5901 5903 5904 5906 5906 5907 5908 5909
5867 5864 5862 5860 5858 5857 5855 5854 5853 5852 5852 5851 5852 5852 5854 5857 5859 5861 5864 5866 5868 5870 5873 5875 5879 5882 5884 5885 5886 5888 5881 5878 5883 5894 5894 5898 5901 5902 5903 5905 5907 5908 5909 5910 5911
5864 5861 5858 5856 5853 5851 5850 5849 5848 5847 5847 5846 5847 5847 5848 5851 5854 5856 5860 5863 5865 5867 5870 5873 5876 5880 5881 5884 5884 5887 5889 5887 5887 5896 5894 5898 5902 5902 5904 5906 5908 5911 5911 5911 5913
5860 5857 5854 5851 5848 5846 5844 5843 5842 5841 5840 5841 5840 5841 5842 5844 5851 5852 5856 5860 5862 5864 5867 5870 5874 5877 5882 5882 5883 5885 5887 5889 5890 5894 5893 5896 5901 5903 5905 5905 5908 5911 5913 5913 5915
5856 5852 5849 5845 5842 5840 5838 5836 5834 5833 5832 5832 5832 5833 5834 5835 5846 5846 5851 5854 5859 5861 5864 5867 5871 5876 5879 5880 5884 5884 5886 5887 5889 5888 5887 5894 5898 5901 5904 5906 5908 5910 5913 5914 5916
5852 5848 5844 5840 5836 5832 5829 5826 5824 5822 5821 5821 5822 5823 5824 5831 5838 5840 5844 5849 5854 5858 5861 5864 5869 5873 5876 5878 5882 5884 5885 5887 5889 5889 5871 5894 5896 5900 5903 5906 5908 5909 5912 5915 5916
5847 5843 5837 5833 5828 5824 5820 5816 5813 5812 5812 5812 5814 5816 5818 5824 5828 5832 5839 5843 5848 5854 5858 5862 5867 5871 5873 5876 5880 5881 5883 5885 5886 5888 5889 5892 5894 5898 5901 5904 5907 5909 5911 5914 5917
5842 5837 5831 5826 5821 5816 5811 5808 5805 5804 5805 5805 5806 5809 5813 5817 5822 5828 5833 5838 5844 5849 5855 5861 5864 5868 5871 5874 5877 5876 5874 5869 5882 5884 5884 5889 5893 5896 5899 5903 5905 5908 5911 5913 5916
5836 5831 5824 5819 5813 5809 5806 5804 5803 5802 5800 5800 5802 5802 5806 5810 5818 5822 5829 5834 5838 5845 5851 5857 5861 5865 5871 5875 5876 5875 5876 5875 5875 5877 5881 5886 5891 5891 5893 5898 5903 5907 5910 5912 5915
5830 5824 5818 5812 5808 5806 5804 5801 5799 5798 5798 5797 5797 5799 5801 5805 5811 5817 5824 5830 5835 5842 5848 5853 5859 5865 5869 5872 5869 5870 5871 5867 5867 5874 5879 5881 5886 5886 5892 5895 5899 5903 5907 5910 5914
5825 5819 5813 5808 5806 5804 5802 5800 5797 5796 5796 5796 5796 5797 5800 5803 5806 5812 5819 5825 5832 5837 5842 5849 5859 5863 5865 5869 5870 5870 5867 5868 5869 5870 5874 5876 5880 5883 5887 5891 5897 5901 5904 5906 5912
5821 5815 5810 5807 5806 5803 5801 5798 5797 5796 5795 5796 5797 5798 5799 5801 5804 5808 5814 5822 5829 5834 5839 5846 5853 5857 5860 5865 5868 5861 5863 5867 5872 5870 5874 5876 5878 5879 5881 5886 5889 5896 5902 5906 5909
5817 5812 5808 5804 5804 5802 5801 5798 5797 5797 5797 5798 5798 5797 5799 5800 5802 5806 5811 5817 5824 5831 5836 5842 5847 5851 5856 5863 5868 5861 5865 5866 5871 5871 5874 5874 5877 5874 5875 5880 5887 5892 5900 5904 5908
5815 5811 5807 5805 5803 5802 5800 5798 5799 5800 5797 5798 5798 5798 5799 5801 5803 5803 5808 5815 5820 5826 5832 5839 5845 5847 5852 5856 5864 5857 5863 5865 5870 5870 5871 5872 5875 5876 5876 5879 5884 5889 5896 5901 5904
5813 5810 5807 5804 5804 5801 5800 5799 5800 5800 5801 5800 5801 5800 5800 5804 5805 5804 5808 5812 5819 5826 5832 5836 5837 5839 5845 5854 5857 5853 5860 5867 5870 5869 5872 5876 5875 5880 5880 5883 5883 5887 5898 5898 5899
5813 5810 5807 5805 5803 5801 5800 5799 5800 5800 5802 5801 5802 5803 5802 5804 5806 5805 5807 5812 5817 5823 5835 5835 5837 5841 5849 5851 5854 5857 5864 5870 5868 5872 5874 5871 5873 5876 5882 5885 5888 5888 5893 5894 5892
5812 5810 5807 5805 5803 5801 5800 5799 5800 5801 5800 5803 5802 5804 5803 5806 5806 5807 5812 5814 5818 5822 5832 5830 5837 5840 5841 5847 5852 5855 5859 5867 5867 5869 5869 5870 5874 5869 5880 5884 5888 5891 5892 5892 5892
5811 5809 5806 5804 5803 5801 5800 5800 5798 5798 5799 5801 5801 5801 5802 5803 5808 5810 5814 5817 5815 5819 5822 5826 5835 5839 5838 5841 5846 5851 5856 5862 5866 5867 5869 5870 5870 5870 5874 5881 5886 5890 5889 5891 5894
5809 5808 5805 5804 5803 5802 5800 5800 5798 5797 5798 5799 5800 5804 5802 5804 5805 5807 5805 5809 5809 5814 5816 5822 5826 5831 5834 5835 5842 5848 5851 5854 5863 5868 5869 5867 5867 5865 5871 5877 5877 5882 5889 5890 5891
5808 5808 5806 5805 5804 5805 5803 5800 5799 5798 5798 5798 5799 5800 5801 5802 5804 5805 5805 5806 5806 5809 5813 5821 5822 5825 5832 5835 5837 5843 5848 5852 5858 5864 5867 5868 5863 5863 5868 5865 5870 5876 5880 5887 5890
5808 5806 5806 5806 5805 5807 5803 5801 5799 5799 5798 5798 5799 5799 5798 5799 5801 5800 5801 5801 5803 5807 5809 5814 5819 5824 5829 5833 5834 5837 5844 5850 5854 5860 5865 5871 5866 5863 5866 5862 5866 5872 5877 5883 5887
5807 5806 5806 5806 5805 5805 5803 5801 5800 5799 5797 5796 5796 5796 5797 5799 5800 5798 5800 5800 5799 5803 5805 5810 5818 5822 5821 5824 5827 5834 5839 5844 5851 5856 5863 5869 5866 5866 5861 5862 5870 5873 5876 5882 5885
5805 5803 5804 5805 5803 5802 5801 5800 5799 5798 5797 5796 5795 5794 5794 5795 5794 5796 5797 5797 5796 5797 5800 5805 5810 5814 5816 5819 5822 5826 5829 5836 5844 5851 5859 5867 5866 5857 5858 5866 5867 5870 5872 5878 5881
5802 5800 5800 5801 5801 5801 5800 5799 5797 5796 5795 5794 5793 5793 5793 5793 5793 5792 5793 5794 5793 5795 5797 5801 5807 5808 5810 5815 5818 5822 5825 5828 5836 5845 5849 5855 5858 5851 5846 5857 5861 5861 5865 5870 5874
5797 5796 5796 5798 5799 5799 5797 5796 5795 5794 5794 5792 5791 5791 5790 5789 5789 5788 5789 5789 5791 5791 5792 5795 5800 5804 5808 5811 5814 5817 5822 5825 5830 5834 5843 5849 5846 5838 5850 5851 5847 5847 5852 5858 5863
Wind_Speed
15 13 11 10 10 10 8 7 7 7 8 12 13 17 17 15 14 14 12 13 12 11 15 18 16 13 10 5 3 3 26 12 15 16 13 14 11 12 11 9 9 7 8 8 7
18 17 15 13 11 9 10 9 7 8 7 9 13 16 18 18 17 16 15 13 13 13 14 17 17 15 12 8 7 0 23 26 20 17 17 16 15 12 12 9 12 9 8 8 7
20 18 16 16 15 15 13 9 9 8 9 10 10 15 19 20 21 17 19 17 14 13 12 15 18 18 16 10 9 7 16 21 21 15 17 17 17 13 11 12 10 10 11 9 8
23 22 20 20 19 18 18 16 13 12 13 13 16 14 19 23 23 23 20 19 18 14 13 15 19 20 18 14 11 6 11 8 23 15 19 15 16 16 14 13 10 10 11 11 9
25 24 24 26 26 24 22 20 19 17 18 19 19 21 21 23 23 27 23 21 20 18 15 17 20 22 22 16 15 8 5 5 13 20 16 16 17 16 13 12 12 11 10 11 9
29 30 29 29 29 28 28 27 25 22 21 25 26 26 28 29 18 29 25 23 23 22 19 19 22 23 20 18 16 13 9 10 16 10 16 21 19 18 17 15 13 13 11 11 10
32 32 32 31 30 31 30 29 27 26 27 30 33 34 33 35 24 31 29 26 25 25 24 23 24 24 21 22 16 14 11 9 9 12 20 20 23 22 19 18 17 16 14 12 10
33 34 32 31 32 32 30 29 29 31 33 36 38 38 39 34 29 33 32 30 28 27 27 26 24 24 22 22 19 14 13 14 16 14 18 21 23 22 22 20 20 18 16 14 13
31 31 31 30 31 29 30 31 31 30 30 31 31 34 38 34 34 36 34 33 32 30 30 28 26 24 24 22 20 20 17 17 17 18 22 22 18 25 24 23 22 22 18 17 14
31 30 30 30 30 31 30 26 23 22 23 23 23 26 33 34 34 33 35 35 34 33 31 28 28 26 24 25 23 28 35 18 23 25 25 28 27 24 26 26 25 24 22 19 17
31 30 29 30 30 26 21 18 16 15 17 17 17 22 24 30 30 34 33 35 36 34 33 32 32 29 23 21 25 23 34 20 27 17 23 29 26 29 31 31 29 26 24 22 20
29 29 29 27 22 18 14 14 14 13 12 13 15 17 20 23 28 32 33 35 36 35 35 35 32 28 25 21 24 30 33 25 12 10 19 35 36 35 30 32 33 31 29 25 23
27 26 25 19 16 13 14 12 10 10 10 8 10 13 13 18 23 28 31 34 35 35 39 35 29 26 31 21 28 23 23 25 10 12 10 23 39 38 38 29 33 33 30 29 26
25 23 18 15 15 15 11 6 7 8 8 4 6 5 8 13 20 25 31 32 34 35 37 36 32 19 27 28 19 26 15 21 23 11 8 10 19 27 42 39 35 37 34 32 28
23 18 15 14 13 11 8 4 5 8 1 5 6 8 5 10 20 20 28 32 34 33 36 35 37 21 27 21 19 26 21 21 20 20 20 17 5 5 26 43 37 35 32 33 27
19 15 13 11 11 11 9 5 3 5 9 7 10 5 7 5 10 23 26 30 33 35 35 29 21 28 30 35 20 28 23 17 12 16 9 11 12 7 4 5 36 37 35 35 34
16 14 11 10 9 9 9 4 4 4 13 4 8 2 5 2 8 10 23 28 31 31 32 32 31 30 37 28 26 19 20 14 19 22 16 16 13 14 17 14 3 31 27 32 36
15 12 11 11 11 11 8 4 7 12 5 11 6 3 9 4 6 7 15 22 26 25 8 21 27 34 31 30 26 35 21 15 14 12 16 12 12 14 4 3 5 13 7 7 20
14 11 10 11 11 10 5 8 7 6 11 4 7 4 5 6 2 10 3 8 13 20 15 24 15 19 25 31 24 16 26 21 19 18 10 17 9 6 13 14 9 10 5 5 7
13 9 8 12 11 9 4 2 7 7 6 9 11 9 10 10 3 3 10 8 20 18 13 20 12 19 18 30 34 23 11 17 25 20 13 21 26 15 6 10 12 12 10 8 11
13 10 7 10 11 4 7 5 4 5 2 11 5 4 8 9 7 16 13 22 13 25 37 27 21 23 21 26 29 35 27 24 19 18 20 22 17 8 7 15 8 12 17 14 12
13 9 5 8 10 9 8 3 4 4 4 4 9 10 15 18 7 12 19 28 29 19 33 27 18 11 7 12 20 24 25 19 22 25 25 19 32 27 19 19 15 14 13 15 18
12 6 2 5 5 4 7 3 2 3 2 1 3 11 7 10 14 13 5 27 26 33 32 39 29 14 11 10 13 20 19 15 22 17 17 15 23 29 31 16 18 20 21 20 21
10 3 4 3 1 5 6 6 6 6 6 5 4 4 4 2 7 15 14 14 21 24 26 36 37 20 24 27 23 20 24 22 15 21 14 12 22 26 30 27 15 21 23 22 22
9 5 12 7 10 5 7 7 8 6 5 5 5 6 4 3 11 10 8 16 13 13 18 22 33 25 26 26 26 25 26 25 25 26 20 18 16 26 31 26 33 28 27 26 29
10 11 10 11 7 7 7 7 8 10 8 10 8 6 6 7 14 14 18 14 18 14 13 17 31 38 26 13 32 21 14 26 22 25 35 29 28 38 3 20 27 34 38 34 31
10 11 10 9 9 5 14 8 8 9 9 9 9 11 11 11 8 9 11 12 11 19 17 21 25 30 34 34 12 14 19 18 22 27 28 28 27 31 27 38 21 39 35 40 35
Wind_Direction
347 344 343 340 338 348 345 344 323 313 273 247 245 244 239 237 231 230 231 238 242 232 228 218 210 211 224 234 229 338 164 149 179 181 173 176 162 161 156 174 142 140 124 119 113
344 342 340 337 340 341 348 336 336 311 292 276 248 242 240 236 232 225 225 228 238 237 227 219 206 205 219 220 216 114 179 165 179 173 176 177 171 174 161 157 161 153 134 124 126
350 345 341 339 337 339 337 322 300 286 297 265 274 249 238 236 234 228 222 218 226 232 228 215 202 200 216 214 218 209 284 196 166 176 186 185 177 171 173 173 171 167 146 140 131
345 343 339 340 337 332 329 329 315 280 267 269 250 249 243 236 238 235 226 218 219 222 219 209 201 199 213 212 210 227 305 168 162 198 189 189 186 171 194 180 178 178 160 146 135
344 341 340 341 337 330 326 320 311 298 267 260 254 242 238 237 230 229 227 217 215 216 210 205 201 203 211 211 208 210 216 216 177 193 208 195 194 183 180 177 182 194 173 154 149
340 336 336 336 331 327 325 320 312 294 276 256 249 242 236 232 227 228 225 220 215 211 205 205 200 204 213 212 213 214 215 221 217 211 247 197 198 197 190 181 192 194 189 168 160
338 336 334 332 328 326 323 313 299 279 264 250 242 239 234 236 220 220 219 218 217 210 201 203 200 201 208 214 208 215 220 238 206 228 234 204 201 198 194 190 193 195 195 179 177
333 334 332 330 329 325 315 299 287 272 260 251 245 239 234 233 221 217 214 213 212 215 202 204 198 202 209 214 203 206 222 237 226 238 177 199 204 201 199 199 196 194 195 187 186
337 337 333 329 324 313 301 292 287 281 273 268 259 246 238 231 222 217 210 207 207 209 208 202 198 201 206 212 207 203 216 221 233 237 233 203 201 208 201 201 201 196 195 190 194
340 337 330 325 315 306 304 303 298 290 282 272 259 247 242 233 224 220 213 206 205 206 205 201 200 202 206 211 212 217 230 200 218 242 222 190 213 208 205 204 206 202 199 194 196
339 338 328 320 316 319 318 316 305 294 282 269 255 246 237 234 228 221 215 209 205 203 202 205 202 200 200 216 217 243 234 215 211 228 208 192 204 218 209 205 208 210 201 197 199
343 337 325 322 330 332 328 319 311 299 281 265 253 246 236 224 220 219 214 211 207 201 202 207 201 201 195 221 226 238 249 252 204 191 217 201 204 223 212 209 206 208 205 201 199
343 334 326 336 339 334 322 316 316 306 295 275 262 248 236 224 214 214 211 213 208 203 205 207 202 212 206 217 210 241 258 255 267 241 205 217 214 217 221 202 210 211 212 204 200
340 332 339 342 335 328 322 339 350 325 323 296 288 278 239 225 218 209 207 207 210 208 207 206 201 219 215 218 224 256 243 269 254 292 229 184 211 222 223 209 206 210 214 216 206
340 341 349 341 338 336 336 341 2 7 310 343 314 257 274 207 221 204 207 205 207 210 208 206 205 205 213 216 218 245 257 259 253 261 279 237 129 29 209 207 210 212 212 213 213
345 349 350 351 342 341 337 346 4 355 320 351 331 262 225 243 238 209 200 206 204 209 215 202 216 220 209 213 197 248 253 260 241 199 311 344 320 329 255 121 213 202 206 210 200
349 353 354 352 349 348 341 3 48 38 355 31 334 273 89 195 261 222 205 200 205 212 217 214 212 203 219 212 215 222 231 262 257 280 339 298 320 328 330 328 276 199 198 231 207
352 356 358 1 349 348 341 54 53 335 260 270 232 168 243 170 219 256 199 204 204 193 207 237 231 233 228 216 240 236 216 229 266 225 237 148 231 268 298 300 343 140 171 209 201
356 351 7 357 348 348 34 63 112 237 265 23 53 156 245 327 281 165 204 230 208 191 179 214 242 254 245 223 210 266 228 210 247 247 221 254 273 204 200 210 231 210 165 220 189
354 353 15 5 352 345 5 65 271 258 127 133 201 228 211 158 146 180 160 198 203 205 208 205 188 222 238 227 218 196 218 215 226 243 234 248 252 242 223 185 210 233 223 229 214
344 341 17 5 346 337 38 319 21 63 145 164 95 143 321 217 192 188 213 175 220 193 196 188 175 190 221 242 223 216 215 195 203 243 248 234 247 177 220 236 250 229 220 208 238
337 326 360 360 333 23 240 350 15 67 94 159 210 175 222 240 226 201 244 217 215 206 196 186 165 225 205 218 240 212 225 218 206 211 220 257 280 292 265 190 178 216 228 230 220
335 348 325 332 62 228 290 264 317 12 302 264 244 208 219 220 218 228 297 224 221 224 223 200 180 190 211 262 229 226 207 236 224 204 216 243 261 275 275 283 188 211 234 223 227
320 324 238 272 293 165 317 287 307 279 289 284 312 301 228 277 283 240 213 265 256 233 229 225 205 184 231 209 186 197 214 206 211 226 212 219 264 275 287 284 271 227 222 231 225
302 262 224 202 232 251 243 247 246 275 278 273 267 255 272 231 204 240 248 267 278 243 228 220 206 185 218 222 209 202 202 212 211 193 204 193 228 273 247 261 264 263 230 218 229
285 284 234 243 225 244 259 256 268 274 265 275 264 258 249 238 242 250 235 217 230 243 210 207 196 195 207 216 219 220 248 195 204 220 195 195 204 223 180 246 231 237 242 230 230
293 273 246 244 225 215 250 263 281 280 277 271 276 272 260 253 272 267 255 259 249 226 242 201 197 209 211 225 247 221 215 213 199 192 203 205 218 243 223 224 264 224 233 231 228